Location: *
(49.4547°N, 7.9131°E)
Time: 00:30:24
(UTC+00:00)

Cosmos 2181 Rocket - Pass Details

Date: 22 September 2019
Orbit: 953 x 1014 km, 82.9° (Epoch: 14 October)

Event Time Altitude Azimuth Distance (km) Brightness Sun altitude
Rises 18:31:16 0° 168° (SSE) 3,661 6.8 -11.1°
Reaches altitude 10° 18:33:49 10° 163° (SSE) 2,727 6.0 -11.5°
Maximum altitude 18:39:48 50° 91° (E) 1,253 4.2 -12.5°
Drops below altitude 10° 18:45:55 10° 18° (NNE) 2,785 6.4 -13.4°
Sets 18:48:32 0° 14° (NNE) 3,746 7.1 -13.8°
